Location: Foulognes
(49.1413°N, 0.8183°W)
Time: 19:05:24
(UTC+00:00)

Cosmos 2016 Rocket - Pass Details

Date: 21 October 2019
Orbit: 947 x 1000 km, 83.0° (Epoch: 14 November)

Event Time Altitude Azimuth Distance (km) Brightness Sun altitude
Rises 19:48:05 0° 348° (NNW) 3,687 7.4 -27.6°
Reaches altitude 10° 19:50:37 10° 346° (NNW) 2,743 6.7 -28.0°
Maximum altitude 19:56:50 66° 266° (W) 1,075 4.3 -29.0°
Enters shadow 20:00:07 29° 193° (SSW) 1,717 5.2 -29.5°
